ATLAS 5 CENTAUR DEB, 49352

Orbit data source: Space-Track

ATLAS 5 CENTAUR DEB, 49352 is space debris in HEO originally from a launch on Wed, 17 Oct 2018 UTC launched from the Air Force Eastern Test Range (AFETR). Debris objects in space refer to the collection of defunct objects orbiting the Earth. Examples of debris include non-operational satellites, rocket bodies, and fragments generated from explosions, collisions, or faulty payload assembly.

Loading next visibility...
Identifier
49352, 2018-079FD
Orbit
HEO
Country
Flag of USUS
Related business
Flag of USUnited Launch Alliance/Lockheed Martin (US)
Manufacturer
ULA Decatur
Mission
Spacecraft
Bus & Motor
Unknown
Mass
Unknown
Launch date (UTC)
2018-10-17 (8 years ago)
Launch vehicle
Unknown
Launch site
Air Force Eastern Test Range (AFETR)
Object type
Payload
Rocket body
Debris
Shape & HBR
Unknown shape, 1.1 m
Radar Cross Section
Medium (>0.1 m² and <1 m²)

Expand to show TLE details & history
Last TLE update: 2 months ago

TLE from 2 months ago
0 ATLAS 5 CENTAUR DEB
1 49352U 18079FD  26190.05716732 -.00000121  00000-0  00000-0 0  9992
2 49352  12.5012  77.7056 4578460 230.5451  79.0256  1.68321044 29887
Epoch: 2026-07-09T01:22Z
TLE epoch observation values (Epoch: 2026-07-09T01:22:19.256Z)
Latitude
0.00002°
Longitude
130.11634°
Altitude
26,920.253 km
Speed
3.254 km/s
True Right ascension
05h 10m 48s
True Declination
0° 00' 00"
Sunlit
Object was in daylight at epoch
Visualization orbit readout
Latitude
Unknown
Longitude
Unknown
Altitude
Unknown
Speed
Unknown
Apparent Right ascension
Unknown
Apparent Declination
Unknown
Sunlit
N/A
Visualization observer readout
Local Sidereal Time
17:54:34
Azimuth
Unknown
Elevation
Unknown
Doppler factor
Unknown
Orbital elements
Apogee altitude
37,144.635 km
Perigee altitude
9,807.417 km
Semi-major axis
29,854.163 km
Eccentricity
0.45785
Inclination
12.5012°
RAAN
77.7056°
Arg. of periapsis
230.5451°
True anomaly
129.39341°
Mean anomaly
79.0256°
Eccentric anomaly
104.43061°
Mean motion
0.42076 °/min
Orbital period
855.59 mins
BSTAR
0
Loading maneuver chart data...
Computing Atmospheric mass density...

Documentation

Showing up to 5 results
|